loading
DOY 173 | 2024-06-21T05:17:18Z

THOR ABLESTAR DEB, 210

Orbit data source: Space-Track

THOR ABLESTAR DEB, 210 is space debris in LEO originally from a launch on Thu, 29 Jun 1961 UTC launched from the Air Force Eastern Test Range (AFETR). Debris objects in space refer to the collection of defunct objects orbiting the Earth. Examples of debris include non-operational satellites, rocket bodies, and fragments generated from explosions, collisions, or faulty payload assembly.

Loading next visibility...
Loading greatness...
THOR ABLESTAR DEB details
NORAD ID210
COSPAR ID
1961-015BE
Orbit
LEO
Last TLE update1 day ago
Origin
Flag of USUSAF SSD (US)
ManufacturerUnknown
BusUnknown
MotorUnknown
MassWet unknown, Dry mass unknown
Launch date (UTC)
1961-06-29 (63 years ago)
Launch vehicleUnknown
Launch site
Air Force Eastern Test Range (AFETR)
Object type
Payload
Rocket body
Debris
Radar Cross SectionMedium (>0.1 m² and <1 m²)
Predictive object data (real-time)
Latitude23.44482°
Longitude127.47634°
Altitude910.957 km
Speed7.413 km/s
Apparent Right ascension02h 01m 52s
Apparent Declination-6° 38' 19"
Sunlit
Object is in daylight
Predictive observer data (real-time)
Local Sidereal Time16:16:26
Azimuth51.228° ENE
Elevation-45.109°
Doppler factor1
Orbital elements
Apogee964.829 km
Perigee906.095 km
Semi-major axis7,313.599 km
Eccentricity0.0040154
Inclination66.4585°
RAAN358.9137°
Arg. of periapsis43.9066°
True anomaly316.20092°
Mean anomaly316.5187°
Mean motion3.47014 °/min
BSTAR0.00053655
Period103.74 mins
Definitive object data (Epoch: 2024-06-19T22:01:47.353Z)
Latitude-0.00002°
Longitude119.84897°
Altitude917.814 km
Speed7.404 km/s
True Right ascension23h 55m 39s
True Declination0° 00' 00"
Sunlit
Object was in daylight at TLE epoch
TLE from 1 day ago
0 THOR ABLESTAR DEB
1 00210U 61015BE  24171.91790918  .00000561  00000-0  53655-3 0  9994
2 00210  66.4585 358.9137 0040154  43.9066 316.5187 13.87607724164431
Epoch: 2024-06-19T22:01Z
No data available

THOR ABLESTAR DEB Visibility forecast

Observer location: 39.9160978°, -105.1181434, 0m alt.

THOR ABLESTAR DEB is not visible in the next 10 days
Span
Click to sort rows by Start time (UTC) header in descending order
Start Az.
Max El. time (UTC)
Max El. Az.
Max El.
End time (UTC)
End Az.